Time,TemperatureF,DewpointF,PressureIn,WindDirection,WindDirectionDegrees,WindSpeedMPH,WindSpeedGustMPH,Humidity,HourlyPrecipIn,Conditions,Clouds,dailyrainin,SoftwareType,DateUTC
2013-05-16 09:46:00,66.2,56.1,29.66,WSW,248,6.2,6.2,70,0.00,,,0.00,WUHU216HW,2013-05-16 07:46:00,
2013-05-16 09:47:00,66.2,56.1,29.66,WSW,248,6.2,6.2,70,0.00,,,0.00,WUHU216HW,2013-05-16 07:47:00,
2013-05-16 09:52:00,66.7,55.8,29.65,SE,135,13.6,13.6,68,0.00,,,0.00,WUHU216HW,2013-05-16 07:52:00,
2013-05-16 09:57:00,67.6,55.8,29.66,South,180,8.0,18.3,66,0.02,,,0.02,WUHU216HW,2013-05-16 07:57:00,
2013-05-16 10:02:00,68.5,55.4,29.67,SW,221,14.4,18.3,63,0.02,,,0.02,WUHU216HW,2013-05-16 08:02:00,
2013-05-16 10:07:00,69.0,55.5,29.68,SSE,162,7.2,17.0,62,0.02,,,0.02,WUHU216HW,2013-05-16 08:07:00,
2013-05-16 10:12:00,69.4,55.8,29.69,SE,135,14.5,14.9,62,0.02,,,0.02,WUHU216HW,2013-05-16 08:12:00,
2013-05-16 10:17:00,69.0,55.5,29.69,SSE,158,10.7,14.5,62,0.02,,,0.02,WUHU216HW,2013-05-16 08:17:00,
2013-05-16 10:22:00,68.5,55.4,29.69,South,184,7.4,11.8,63,0.02,,,0.02,WUHU216HW,2013-05-16 08:22:00,
2013-05-16 10:27:00,68.1,55.9,29.68,SSE,147,9.6,11.8,65,0.02,,,0.02,WUHU216HW,2013-05-16 08:27:00,
2013-05-16 10:32:00,67.8,56.0,29.68,SSE,158,7.0,11.1,66,0.02,,,0.02,WUHU216HW,2013-05-16 08:32:00,
2013-05-16 10:37:00,68.1,56.7,29.70,South,180,11.8,11.8,67,0.02,,,0.02,WUHU216HW,2013-05-16 08:37:00,
2013-05-16 10:42:00,68.3,56.5,29.70,SE,145,3.6,11.8,66,0.02,,,0.02,WUHU216HW,2013-05-16 08:42:00,
2013-05-16 10:47:00,68.7,56.4,29.70,SSE,158,5.1,6.9,65,0.02,,,0.02,WUHU216HW,2013-05-16 08:47:00,
2013-05-16 10:52:00,69.4,57.1,29.70,SSW,203,0.0,6.0,65,0.02,,,0.02,WUHU216HW,2013-05-16 08:52:00,
2013-05-16 10:57:00,70.3,57.1,29.69,NNE,26,1.5,3.5,63,0.00,,,0.02,WUHU216HW,2013-05-16 08:57:00,
2013-05-16 11:02:00,70.8,56.3,29.69,South,180,3.8,9.1,60,0.00,,,0.02,WUHU216HW,2013-05-16 09:02:00,
2013-05-16 11:07:00,71.4,57.2,29.68,WSW,248,5.1,9.1,61,0.00,,,0.02,WUHU216HW,2013-05-16 09:07:00,
2013-05-16 11:12:00,71.4,56.3,29.68,WNW,293,1.5,5.1,59,0.00,,,0.02,WUHU216HW,2013-05-16 09:12:00,
2013-05-16 11:17:00,71.7,56.6,29.67,NW,315,2.9,5.1,59,0.00,,,0.02,WUHU216HW,2013-05-16 09:17:00,
2013-05-16 11:23:00,72.6,57.4,29.67,SSE,158,3.5,3.5,59,0.00,,,0.02,WUHU216HW,2013-05-16 09:23:00,
2013-05-16 11:28:00,72.6,56.9,29.67,West,270,0.0,4.9,58,0.00,,,0.02,WUHU216HW,2013-05-16 09:28:00,
2013-05-16 11:33:00,73.5,56.9,29.67,NW,315,2.4,4.9,57,0.00,,,0.02,WUHU216HW,2013-05-16 09:33:00,
2013-05-16 11:38:00,73.5,57.3,29.68,SSW,203,2.8,3.8,57,0.00,,,0.02,WUHU216HW,2013-05-16 09:38:00,
2013-05-16 11:43:00,74.3,58.5,29.68,SW,225,3.3,3.8,58,0.00,,,0.02,WUHU216HW,2013-05-16 09:43:00,
2013-05-16 11:48:00,74.8,58.0,29.68,SSE,158,3.8,4.6,56,0.00,,,0.02,WUHU216HW,2013-05-16 09:48:00,
2013-05-16 11:53:00,74.4,57.0,29.68,South,186,3.3,8.9,55,0.00,,,0.02,WUHU216HW,2013-05-16 09:53:00,
2013-05-16 11:58:00,75.0,57.7,29.67,WSW,248,1.1,8.9,55,0.00,,,0.02,WUHU216HW,2013-05-16 09:58:00,
2013-05-16 12:03:00,75.2,57.4,29.66,WSW,258,3.2,5.3,54,0.00,,,0.02,WUHU216HW,2013-05-16 10:03:00,
2013-05-16 12:08:00,74.8,57.5,29.66,WSW,248,2.6,5.3,55,0.00,,,0.02,WUHU216HW,2013-05-16 10:08:00,
2013-05-16 12:13:00,75.0,57.2,29.66,WSW,248,1.1,2.6,54,0.00,,,0.02,WUHU216HW,2013-05-16 10:13:00,
2013-05-16 12:18:00,75.2,57.4,29.65,NW,315,3.8,3.8,54,0.00,,,0.02,WUHU216HW,2013-05-16 10:18:00,
2013-05-16 12:23:00,75.0,56.7,29.65,NW,315,1.3,3.8,53,0.00,,,0.02,WUHU216HW,2013-05-16 10:23:00,
2013-05-16 12:28:00,75.3,57.5,29.65,North,0,5.5,5.5,54,0.00,,,0.02,WUHU216HW,2013-05-16 10:28:00,
2013-05-16 12:33:00,75.9,58.0,29.65,North,9,2.2,8.2,54,0.00,,,0.02,WUHU216HW,2013-05-16 10:33:00,
2013-05-16 12:38:00,76.2,57.8,29.64,NW,315,5.3,8.2,53,0.00,,,0.02,WUHU216HW,2013-05-16 10:38:00,
2013-05-16 12:43:00,75.9,58.5,29.64,NNE,22,2.3,5.3,55,0.00,,,0.02,WUHU216HW,2013-05-16 10:43:00,
2013-05-16 12:48:00,75.5,57.2,29.63,West,279,2.7,6.0,53,0.00,,,0.02,WUHU216HW,2013-05-16 10:48:00,
2013-05-16 12:53:00,75.3,57.5,29.63,NNE,28,5.0,7.6,54,0.00,,,0.02,WUHU216HW,2013-05-16 10:53:00,
2013-05-16 12:58:00,75.7,58.4,29.63,NE,45,7.6,7.6,55,0.00,,,0.02,WUHU216HW,2013-05-16 10:58:00,
2013-05-16 13:03:00,75.9,58.0,29.63,NNW,338,5.3,7.6,54,0.00,,,0.02,WUHU216HW,2013-05-16 11:03:00,
2013-05-16 13:08:00,75.9,58.0,29.62,North,3,1.8,5.3,54,0.00,,,0.02,WUHU216HW,2013-05-16 11:08:00,
2013-05-16 13:13:00,76.1,57.7,29.62,NNW,338,5.5,6.0,53,0.00,,,0.02,WUHU216HW,2013-05-16 11:13:00,
2013-05-16 13:18:00,75.9,58.0,29.61,NNW,338,2.5,6.0,54,0.00,,,0.02,WUHU216HW,2013-05-16 11:18:00,
2013-05-16 13:23:00,76.4,58.5,29.61,North,0,5.3,5.3,54,0.00,,,0.02,WUHU216HW,2013-05-16 11:23:00,
2013-05-16 13:28:00,76.6,58.7,29.61,West,270,5.3,5.3,54,0.00,,,0.02,WUHU216HW,2013-05-16 11:28:00,
2013-05-16 13:33:00,77.1,58.6,29.60,NW,315,0.0,5.3,53,0.00,,,0.02,WUHU216HW,2013-05-16 11:33:00,
2013-05-16 13:38:00,77.3,57.8,29.60,WNW,293,5.1,5.3,51,0.00,,,0.02,WUHU216HW,2013-05-16 11:38:00,
2013-05-16 13:43:00,77.1,58.6,29.60,West,270,5.1,5.8,53,0.00,,,0.02,WUHU216HW,2013-05-16 11:43:00,
2013-05-16 13:48:00,77.7,58.6,29.60,NNW,338,5.3,5.8,52,0.00,,,0.02,WUHU216HW,2013-05-16 11:48:00,
2013-05-16 13:53:00,77.3,58.3,29.60,NW,310,2.8,5.3,52,0.00,,,0.02,WUHU216HW,2013-05-16 11:53:00,
2013-05-16 13:58:00,77.5,58.5,29.60,WSW,248,7.3,7.3,52,0.00,,,0.02,WUHU216HW,2013-05-16 11:58:00,
2013-05-16 14:03:00,77.9,58.3,29.60,NNW,338,5.3,7.3,51,0.00,,,0.02,WUHU216HW,2013-05-16 12:03:00,
2013-05-16 14:08:00,77.7,58.6,29.59,WNW,293,7.6,8.0,52,0.00,,,0.02,WUHU216HW,2013-05-16 12:08:00,
2013-05-16 14:13:00,77.5,58.0,29.60,WNW,293,7.6,8.0,51,0.00,,,0.02,WUHU216HW,2013-05-16 12:13:00,
2013-05-16 14:18:00,77.5,58.5,29.59,WNW,293,2.0,7.6,52,0.00,,,0.02,WUHU216HW,2013-05-16 12:18:00,
2013-05-16 14:23:00,78.0,58.4,29.59,NE,37,4.7,7.1,51,0.00,,,0.02,WUHU216HW,2013-05-16 12:23:00,
2013-05-16 14:29:00,78.9,58.1,29.59,NNW,338,6.4,7.1,49,0.00,,,0.02,WUHU216HW,2013-05-16 12:29:00,
2013-05-16 14:34:00,78.9,58.8,29.58,West,270,10.1,10.7,51,0.00,,,0.02,WUHU216HW,2013-05-16 12:34:00,
2013-05-16 14:39:00,78.9,59.3,29.59,NW,319,5.9,10.7,51,0.00,,,0.02,WUHU216HW,2013-05-16 12:39:00,
2013-05-16 14:44:00,78.9,58.8,29.58,NNW,329,6.0,9.6,50,0.00,,,0.02,WUHU216HW,2013-05-16 12:44:00,
2013-05-16 14:49:00,78.8,58.6,29.58,NW,315,3.6,9.1,50,0.00,,,0.02,WUHU216HW,2013-05-16 12:49:00,
2013-05-16 14:54:00,78.8,58.4,29.58,WSW,248,8.0,9.1,50,0.00,,,0.02,WUHU216HW,2013-05-16 12:54:00,
2013-05-16 14:59:00,78.6,58.9,29.58,WNW,302,4.3,8.2,51,0.00,,,0.02,WUHU216HW,2013-05-16 12:59:00,
2013-05-16 15:04:00,78.6,58.9,29.58,WSW,248,2.9,12.0,51,0.00,,,0.02,WUHU216HW,2013-05-16 13:04:00,
2013-05-16 15:09:00,78.6,58.4,29.58,West,274,3.5,12.0,50,0.00,,,0.02,WUHU216HW,2013-05-16 13:09:00,
2013-05-16 15:14:00,78.6,58.4,29.58,WNW,293,5.5,6.0,50,0.00,,,0.02,WUHU216HW,2013-05-16 13:14:00,
2013-05-16 15:19:00,79.3,58.5,29.57,WNW,293,4.0,6.0,49,0.00,,,0.02,WUHU216HW,2013-05-16 13:19:00,
2013-05-16 15:24:00,79.5,58.6,29.57,NW,315,3.5,5.1,49,0.00,,,0.02,WUHU216HW,2013-05-16 13:24:00,
2013-05-16 15:29:00,79.3,58.5,29.58,West,270,6.2,7.6,49,0.00,,,0.02,WUHU216HW,2013-05-16 13:29:00,
2013-05-16 15:34:00,79.7,58.2,29.58,WNW,293,0.0,7.6,48,0.00,,,0.02,WUHU216HW,2013-05-16 13:34:00,
2013-05-16 15:39:00,80.7,59.1,29.57,West,270,0.0,4.0,48,0.00,,,0.02,WUHU216HW,2013-05-16 13:39:00,
2013-05-16 15:44:00,81.3,58.4,29.57,North,351,2.8,6.2,46,0.00,,,0.02,WUHU216HW,2013-05-16 13:44:00,
2013-05-16 15:49:00,80.4,58.2,29.57,WNW,293,2.3,7.1,47,0.00,,,0.02,WUHU216HW,2013-05-16 13:49:00,
2013-05-16 15:54:00,80.4,58.2,29.57,SSE,158,0.0,7.1,47,0.00,,,0.02,WUHU216HW,2013-05-16 13:54:00,
2013-05-16 15:59:00,82.5,59.5,29.57,NE,45,0.0,2.4,46,0.00,,,0.02,WUHU216HW,2013-05-16 13:59:00,
2013-05-16 16:04:00,82.2,58.6,29.57,WSW,248,3.5,3.8,45,0.00,,,0.02,WUHU216HW,2013-05-16 14:04:00,
2013-05-16 16:09:00,81.6,58.7,29.56,West,280,3.6,4.2,46,0.00,,,0.02,WUHU216HW,2013-05-16 14:09:00,
2013-05-16 16:14:00,81.1,58.9,29.56,NNW,338,2.0,4.2,46,0.00,,,0.02,WUHU216HW,2013-05-16 14:14:00,
2013-05-16 16:19:00,81.6,58.7,29.56,WNW,293,0.0,3.3,46,0.00,,,0.02,WUHU216HW,2013-05-16 14:19:00,
2013-05-16 16:24:00,82.0,59.1,29.56,WSW,248,1.3,1.7,46,0.00,,,0.02,WUHU216HW,2013-05-16 14:24:00,
2013-05-16 16:29:00,81.5,58.6,29.55,NW,315,2.6,2.9,46,0.00,,,0.02,WUHU216HW,2013-05-16 14:29:00,
2013-05-16 16:34:00,81.3,59.0,29.56,WNW,293,1.5,2.9,47,0.00,,,0.02,WUHU216HW,2013-05-16 14:34:00,
2013-05-16 16:39:00,81.5,58.0,29.56,SSW,203,4.9,4.9,46,0.00,,,0.02,WUHU216HW,2013-05-16 14:39:00,
2013-05-16 16:44:00,81.3,58.4,29.56,West,270,4.2,6.2,46,0.00,,,0.02,WUHU216HW,2013-05-16 14:44:00,
2013-05-16 16:49:00,80.4,58.8,29.56,WSW,249,3.2,6.2,48,0.00,,,0.02,WUHU216HW,2013-05-16 14:49:00,
2013-05-16 16:54:00,80.2,56.8,29.57,SW,225,13.0,14.7,45,0.00,,,0.02,WUHU216HW,2013-05-16 14:54:00,
2013-05-16 16:59:00,79.7,56.3,29.57,SSW,210,11.7,16.3,45,0.00,,,0.02,WUHU216HW,2013-05-16 14:59:00,
2013-05-16 17:04:00,79.5,55.6,29.57,South,180,8.7,16.3,44,0.00,,,0.02,WUHU216HW,2013-05-16 15:04:00,
2013-05-16 17:09:00,79.1,55.2,29.57,South,170,5.6,11.1,44,0.00,,,0.02,WUHU216HW,2013-05-16 15:09:00,
2013-05-16 17:14:00,78.6,55.4,29.57,SW,220,9.9,11.8,45,0.00,,,0.02,WUHU216HW,2013-05-16 15:14:00,
2013-05-16 17:19:00,77.5,55.6,29.57,SSW,203,10.0,11.8,47,0.00,,,0.02,WUHU216HW,2013-05-16 15:19:00,
2013-05-16 17:24:00,77.5,55.0,29.58,South,180,10.3,12.7,46,0.00,,,0.02,WUHU216HW,2013-05-16 15:24:00,
2013-05-16 17:29:00,77.1,54.7,29.58,South,180,9.8,12.7,46,0.00,,,0.02,WUHU216HW,2013-05-16 15:29:00,
2013-05-16 17:34:00,76.8,55.6,29.58,South,180,13.8,14.5,48,0.00,,,0.02,WUHU216HW,2013-05-16 15:34:00,
2013-05-16 17:39:00,76.8,53.7,29.57,SSW,196,8.6,14.5,45,0.00,,,0.02,WUHU216HW,2013-05-16 15:39:00,
2013-05-16 17:44:00,76.2,53.3,29.58,South,180,14.5,15.2,45,0.00,,,0.02,WUHU216HW,2013-05-16 15:44:00,
2013-05-16 17:49:00,75.9,52.9,29.57,SSW,192,8.6,15.2,45,0.00,,,0.02,WUHU216HW,2013-05-16 15:49:00,
2013-05-16 17:54:00,75.7,52.8,29.58,SSW,192,13.1,16.5,45,0.00,,,0.02,WUHU216HW,2013-05-16 15:54:00,
2013-05-16 17:59:00,75.5,52.6,29.58,South,180,10.9,16.5,46,0.00,,,0.02,WUHU216HW,2013-05-16 15:59:00,
2013-05-16 18:05:00,75.5,53.2,29.58,South,180,8.8,14.5,46,0.00,,,0.02,WUHU216HW,2013-05-16 16:05:00,
2013-05-16 18:10:00,75.3,53.2,29.58,South,180,12.9,14.5,46,0.00,,,0.02,WUHU216HW,2013-05-16 16:10:00,
2013-05-16 18:16:00,75.3,53.7,29.59,SE,135,11.8,12.9,47,0.00,,,0.02,WUHU216HW,2013-05-16 16:16:00,
2013-05-16 18:21:00,75.0,53.9,29.59,SSE,158,11.8,12.5,48,0.00,,,0.02,WUHU216HW,2013-05-16 16:21:00,
2013-05-16 18:26:00,74.8,54.4,29.59,South,171,4.8,15.6,49,0.00,,,0.02,WUHU216HW,2013-05-16 16:26:00,
2013-05-16 18:31:00,74.6,54.0,29.59,South,180,15.8,15.8,49,0.00,,,0.02,WUHU216HW,2013-05-16 16:31:00,
2013-05-16 18:36:00,74.4,54.6,29.59,East,90,12.5,15.8,50,0.00,,,0.02,WUHU216HW,2013-05-16 16:36:00,
2013-05-16 18:41:00,74.3,54.5,29.59,SSE,152,4.4,12.5,50,0.00,,,0.02,WUHU216HW,2013-05-16 16:41:00,
2013-05-16 18:46:00,74.3,54.5,29.59,ESE,107,6.1,10.7,50,0.00,,,0.02,WUHU216HW,2013-05-16 16:46:00,
2013-05-16 18:51:00,74.3,54.5,29.58,SSE,152,2.1,10.7,50,0.00,,,0.02,WUHU216HW,2013-05-16 16:51:00,
2013-05-16 18:56:00,74.1,54.8,29.58,East,90,3.0,4.2,51,0.00,,,0.02,WUHU216HW,2013-05-16 16:56:00,
2013-05-16 19:01:00,74.1,54.8,29.58,SE,125,2.2,7.3,51,0.00,,,0.02,WUHU216HW,2013-05-16 17:01:00,
2013-05-16 19:06:00,73.9,54.6,29.58,East,85,2.7,7.3,51,0.00,,,0.02,WUHU216HW,2013-05-16 17:06:00,
2013-05-16 19:11:00,73.9,54.6,29.57,ESE,113,3.1,6.7,51,0.00,,,0.02,WUHU216HW,2013-05-16 17:11:00,
2013-05-16 19:16:00,73.9,54.6,29.57,SE,135,0.0,3.1,51,0.00,,,0.02,WUHU216HW,2013-05-16 17:16:00,
2013-05-16 19:21:00,73.9,54.6,29.57,ESE,113,3.1,11.6,51,0.00,,,0.02,WUHU216HW,2013-05-16 17:21:00,
2013-05-16 19:26:00,73.7,54.9,29.57,East,90,0.0,11.6,52,0.00,,,0.02,WUHU216HW,2013-05-16 17:26:00,
2013-05-16 19:31:00,73.7,54.9,29.57,ESE,113,3.8,4.4,52,0.00,,,0.02,WUHU216HW,2013-05-16 17:31:00,
2013-05-16 19:36:00,73.7,54.9,29.58,SSW,203,2.2,3.8,52,0.00,,,0.02,WUHU216HW,2013-05-16 17:36:00,
2013-05-16 19:41:00,73.5,55.2,29.58,SE,135,3.1,6.0,53,0.00,,,0.02,WUHU216HW,2013-05-16 17:41:00,
2013-05-16 19:46:00,73.4,54.6,29.59,SE,129,8.4,14.3,52,0.00,,,0.02,WUHU216HW,2013-05-16 17:46:00,
2013-05-16 19:51:00,73.4,55.1,29.58,WSW,248,4.4,14.3,53,0.00,,,0.02,WUHU216HW,2013-05-16 17:51:00,
2013-05-16 19:56:00,73.2,54.9,29.58,ESE,113,11.6,11.6,53,0.00,,,0.02,WUHU216HW,2013-05-16 17:56:00,
2013-05-16 20:01:00,73.2,55.4,29.58,ESE,113,9.1,11.6,54,0.00,,,0.02,WUHU216HW,2013-05-16 18:01:00,
2013-05-16 20:06:00,73.0,55.7,29.58,SSW,195,4.6,9.1,55,0.00,,,0.02,WUHU216HW,2013-05-16 18:06:00,
2013-05-16 20:11:00,72.6,55.9,29.59,SSE,158,9.8,9.8,56,0.00,,,0.02,WUHU216HW,2013-05-16 18:11:00,
2013-05-16 20:16:00,72.6,55.9,29.59,SSE,158,2.4,9.8,56,0.00,,,0.02,WUHU216HW,2013-05-16 18:16:00,
2013-05-16 20:21:00,72.3,56.1,29.60,South,177,6.8,7.6,57,0.00,,,0.02,WUHU216HW,2013-05-16 18:21:00,
2013-05-16 20:26:00,72.1,56.4,29.60,SW,225,6.7,7.6,58,0.00,,,0.02,WUHU216HW,2013-05-16 18:26:00,
2013-05-16 20:31:00,71.7,56.6,29.60,SSW,203,6.3,7.3,59,0.00,,,0.02,WUHU216HW,2013-05-16 18:31:00,
2013-05-16 20:36:00,71.7,56.6,29.60,WSW,248,4.6,7.3,59,0.00,,,0.02,WUHU216HW,2013-05-16 18:36:00,
2013-05-16 20:41:00,71.4,56.8,29.60,SSE,148,4.1,10.2,60,0.00,,,0.02,WUHU216HW,2013-05-16 18:41:00,
2013-05-16 20:46:00,71.4,56.8,29.60,ESE,113,2.9,10.2,60,0.00,,,0.02,WUHU216HW,2013-05-16 18:46:00,
2013-05-16 20:51:00,71.2,57.1,29.60,SSE,167,1.0,8.5,61,0.00,,,0.02,WUHU216HW,2013-05-16 18:51:00,
2013-05-16 20:56:00,71.2,57.1,29.60,ESE,113,4.0,8.7,61,0.00,,,0.02,WUHU216HW,2013-05-16 18:56:00,
2013-05-16 21:02:00,70.8,57.2,29.60,SSE,158,7.8,7.8,62,0.00,,,0.02,WUHU216HW,2013-05-16 19:02:00,
2013-05-16 21:07:00,70.7,57.0,29.61,SSW,203,1.7,7.8,62,0.00,,,0.02,WUHU216HW,2013-05-16 19:07:00,
2013-05-16 21:12:00,70.7,57.0,29.61,SSE,158,2.6,3.5,62,0.00,,,0.02,WUHU216HW,2013-05-16 19:12:00,
2013-05-16 21:17:00,70.5,57.3,29.61,South,191,3.2,4.6,63,0.00,,,0.02,WUHU216HW,2013-05-16 19:17:00,
2013-05-16 21:22:00,70.3,57.5,29.61,SE,128,1.8,7.8,64,0.00,,,0.02,WUHU216HW,2013-05-16 19:22:00,
2013-05-16 21:27:00,70.3,57.5,29.61,ESE,113,8.5,8.5,64,0.00,,,0.02,WUHU216HW,2013-05-16 19:27:00,
2013-05-16 21:32:00,70.1,57.8,29.61,South,180,10.5,10.7,65,0.00,,,0.02,WUHU216HW,2013-05-16 19:32:00,
2013-05-16 21:37:00,70.1,57.8,29.62,SSE,163,11.0,11.8,65,0.00,,,0.02,WUHU216HW,2013-05-16 19:37:00,
2013-05-16 21:42:00,69.9,58.0,29.62,SE,144,10.7,12.9,66,0.00,,,0.02,WUHU216HW,2013-05-16 19:42:00,
2013-05-16 21:47:00,69.6,57.7,29.63,SSE,147,12.0,12.9,66,0.00,,,0.02,WUHU216HW,2013-05-16 19:47:00,
2013-05-16 21:52:00,69.6,58.1,29.63,SE,135,12.5,12.9,67,0.00,,,0.02,WUHU216HW,2013-05-16 19:52:00,
2013-05-16 21:57:00,69.4,58.3,29.63,ESE,113,5.9,12.9,68,0.00,,,0.02,WUHU216HW,2013-05-16 19:57:00,
2013-05-16 22:02:00,69.2,58.2,29.63,South,179,6.1,11.1,68,0.00,,,0.02,WUHU216HW,2013-05-16 20:02:00,
2013-05-16 22:07:00,69.0,58.4,29.63,ESE,113,15.6,15.6,69,0.00,,,0.02,WUHU216HW,2013-05-16 20:07:00,
2013-05-16 22:12:00,68.9,58.2,29.63,SSE,158,8.6,15.6,69,0.00,,,0.02,WUHU216HW,2013-05-16 20:12:00,
2013-05-16 22:17:00,68.9,58.2,29.63,SSE,158,4.4,13.1,69,0.00,,,0.02,WUHU216HW,2013-05-16 20:17:00,
2013-05-16 22:22:00,68.7,58.5,29.63,SE,135,2.4,17.8,70,0.00,,,0.02,WUHU216HW,2013-05-16 20:22:00,
2013-05-16 22:27:00,68.7,58.1,29.63,SSE,158,5.5,17.8,69,0.00,,,0.02,WUHU216HW,2013-05-16 20:27:00,
2013-05-16 22:32:00,68.7,58.5,29.63,SE,135,12.0,12.0,69,0.00,,,0.02,WUHU216HW,2013-05-16 20:32:00,
2013-05-16 22:37:00,68.7,58.5,29.63,SSE,158,9.8,15.2,70,0.00,,,0.02,WUHU216HW,2013-05-16 20:37:00,
2013-05-16 22:42:00,68.7,58.5,29.63,SE,135,3.8,15.2,70,0.00,,,0.02,WUHU216HW,2013-05-16 20:42:00,
2013-05-16 22:47:00,68.5,58.4,29.63,SE,135,14.9,14.9,70,0.00,,,0.02,WUHU216HW,2013-05-16 20:47:00,
2013-05-16 22:52:00,68.5,58.4,29.63,ESE,113,1.5,14.9,70,0.00,,,0.02,WUHU216HW,2013-05-16 20:52:00,
2013-05-16 22:57:00,68.5,58.4,29.63,ESE,113,6.7,14.3,70,0.00,,,0.02,WUHU216HW,2013-05-16 20:57:00,
2013-05-16 23:02:00,68.5,57.9,29.63,SE,146,4.0,6.7,69,0.00,,,0.02,WUHU216HW,2013-05-16 21:02:00,
2013-05-16 23:07:00,68.3,57.8,29.63,ESE,113,11.6,16.5,69,0.00,,,0.02,WUHU216HW,2013-05-16 21:07:00,
2013-05-16 23:12:00,68.3,57.9,29.63,East,92,5.8,16.5,69,0.00,,,0.02,WUHU216HW,2013-05-16 21:12:00,
2013-05-16 23:17:00,68.3,57.8,29.62,ESE,113,11.1,15.8,69,0.00,,,0.02,WUHU216HW,2013-05-16 21:17:00,
2013-05-16 23:22:00,68.3,57.8,29.63,ESE,113,8.6,15.8,69,0.00,,,0.02,WUHU216HW,2013-05-16 21:22:00,
2013-05-16 23:27:00,68.3,57.3,29.62,ESE,116,5.2,12.0,68,0.00,,,0.02,WUHU216HW,2013-05-16 21:27:00,
2013-05-16 23:32:00,68.5,57.5,29.62,SE,135,8.0,9.1,68,0.00,,,0.02,WUHU216HW,2013-05-16 21:32:00,
2013-05-16 23:38:00,68.7,57.2,29.62,SE,135,12.7,12.7,67,0.00,,,0.02,WUHU216HW,2013-05-16 21:38:00,
2013-05-16 23:43:00,68.7,56.8,29.62,SSE,165,6.4,12.7,66,0.00,,,0.02,WUHU216HW,2013-05-16 21:43:00,
2013-05-16 23:48:00,68.9,57.0,29.62,SE,135,6.0,10.2,66,0.00,,,0.02,WUHU216HW,2013-05-16 21:48:00,
2013-05-16 23:53:00,68.7,56.8,29.62,SE,135,6.4,8.2,66,0.00,,,0.02,WUHU216HW,2013-05-16 21:53:00,
2013-05-16 23:58:00,68.9,57.0,29.63,SSE,158,3.1,6.9,66,0.00,,,0.02,WUHU216HW,2013-05-16 21:58:00,